Погода в Баканасе

Погода в Баканасе : погода сейчас, прогноз погоды и архив. Всё, что Вы хотите узнать о погоде в Баканасе!

Хотите узнать прогноз погоды в Баканасе? Тогда Вам сюда: Погода в Баканасе

Поиск расширенной информации на нашем сайте:

Другие новости

Новости СМИ2

Главная страница сайта

Новости сайта

03.07.2017

Напоминаем, что на нашем специализированном сайте Метеоцентр.Азия вы можете получить высокодетализированные автоматические прогнозы погоды по пунктам России, СНГ и мира в авиационном формате (включающие направление и скорость ветра, видимость, явления погоды, количество и форму облачности, нижнюю и верхнюю границу облачности).

Рекомендуем: hex коды Bram Stoker's Dracula

Погода в Баканасе - сегодня

Время (UTC), дата Ветер
(°,м/с) 
Видим.   Явления Облачность Т
(°С)
Тd
(°С)
f(%) Тe
(°С)
Pmin
(гПа)
dP
(гПа)
Po
(мм)
O2
(г/м3)
Тmin Tmax R s Состояние
почвы
18 14.10.17 тихо ()   н/о    3/0 верхняя 
[Ci sp]
+8.8 +1.7 61 +9  1016.3  0.7  727  283    +22.5       
21 14.10.17 тихо ()   н/о    ясно 
+9 +3.3 67 +9  1017.2  728  283           
00 15.10.17 тихо () {04}  н/о    3/1 2000 м средняя, верхняя 
[Ac trans|Ci sp]
+9.1 +4.4 72 +9  1018.5  1.2  728  283           
03 15.10.17 тихо ()   20000 м    8/3 600 м кучево-дожд., средняя, верхняя 
[Cb cap|Ac trans|Ci sp]
+10 +4.7 70 +10  1019.4  750  291           
06 15.10.17 тихо ()   20000 м    9/9 600 м кучево-дожд. 
[Cb cap]
+15 +4.7 50 +15  1018.4  -0.2  729  278  +8         
09 15.10.17 290 (З) 20000 м    3/3 600 м кучево-дожд. 
[Cb cap]
+19.8 +4.2 36 +21  1016.4  -1.2  728  273           
12 15.10.17 тихо ()   20000 м    ясно 
+19 +4.4 38 +19  1016.5  728  274           
15 15.10.17 тихо ()   н/о    ясно 
+10.8 +3.7 61 +11  1018.2  0.4  728  282    +21.2       
18 15.10.17 050 (СВ) н/о    ясно 300 м 
+8.9 +2.1 62 +9  1017.9  -0.6  728  284    +21.2       
21 15.10.17 060 (СВ) н/о    ясно 
+6 +1.6 73 +6  1017.1  -1.3  727  286           
00 16.10.17 040 (СВ) н/о    3/0 верхняя 
[Ci sp]
+5.9 +1.8 75 +6  1016.2  -0.8  726  286      230  596  мокрый или
старый снег
10-40% 
03 16.10.17 030 (СВ) 20000 м    ясно 
+7.4 +1.6 67 +7  1016.3  0.3  750  294           
06 16.10.17 040 (СВ) 20000 м    4/0 верхняя 
[Ci fib]
+18.4 +1.9 33 +20  1014.1  -0.4  726  274  +5.1         
09 16.10.17 040 (СВ) 20000 м    4/0 верхняя 
[Ci fib]
+21.8 +3 29 +22  1012.2  -1.3  725  270           
12 16.10.17 тихо ()   20000 м    4/3 600 м кучево-дожд., верхняя 
[Cb cap|Ci fib]
+20 +5.7 39 +20  1012.9  0.5  726  272           
15 16.10.17 тихо ()   н/о    4/3 600 м кучево-дожд., верхняя 
[Cb cap|Ci fib]
+12.6 +4.4 57 +13  1015.9  1.7  727  279    +22.5       
18 16.10.17 тихо ()   н/о    6/6 600 м кучево-дожд. 
[Cb cap]
+11.6 +3.1 56 +12  1016.5  0.4  727  281    +22.5       
21 16.10.17 тихо ()   н/о    6/6 600 м кучево-дожд. 
[Cb cap]
+11.6 +5.2 65 +12  1016.4  -0.1  727  280           
00 17.10.17 тихо () {06}  н/о    4/3 600 м кучево-дожд., верхняя 
[Cb cap|Ci sp]
+8 +5.8 86 +8  1016.5  -0.5  727  284           
03 17.10.17 тихо ()   20000 м    4/3 600 м кучево-дожд., верхняя 
[Cb cap|Ci sp]
+1 +5.7 100 +1  1016.5  0.4  727  291           
06 17.10.17 060 (СВ) 20000 м    8/0 верхняя 
[Cs]
+20.2 +6.5 41 +20  1013.8  -1.1  726  271  +7.9         
09 17.10.17 100 (В) 20000 м    6/0 верхняя 
[Ci sp]
+23.9 +2.9 25 +24  1011.1  -2  725  268           
12 17.10.17 тихо ()   20000 м    8/3 600 м кучево-дожд., верхняя 
[Cb cap|Ci sp]
+22.4 +6.1 35 +22  1011.1  -0.2  725  269           
15 17.10.17 070 (В) н/о    9/3 600 м кучево-дожд., верхняя 
[Cb cap|Ci sp]
+17.2 +3.1 39 +18  1011.3  -0.6  724  274    +24.7       
18 17.10.17 070 (В) н/о    8/3 600 м кучево-дожд., верхняя 
[Cb cap|Ci sp]
+14.2 +3.1 47 +15  1010.1  -1.6  723  276    +24.7       
Время (UTC), дата Ветер
(°,м/с) 
Видим.   Явления Облачность Т
(°С)
Тd
(°С)
f(%) Тe
(°С)
Pmin
(гПа)
dP
(гПа)
Po
(мм)
O2
(г/м3)
Тmin Tmax R s Состояние
почвы

Для получения пояснительной информации подведите курсор к названию столбца.

ПОГОДА в Баканасе - архив

Всё, что Вы хотите узнать о погоде в Баканасе - удобно и подробно!

Выберите нужную дату (начиная с 1 января 2015* года) и нажмите кнопку "Найти".
Будут отображены архивные сводки погоды по пункту Баканас, начиная с указанной даты.


Отображать данные в формате CSV (для использования в таблицах Excel)


Внимание! Наш архив погоды предназначен исключительно для личного некоммерческого использования в познавательных целях. Если Вам необходимы официальные справки о состоянии погоды (для производственных, юридических, коммерческих и т.п. целей), обращайтесь в органы Росгидромета.

*Примечание: данная дата относится к архиву по метеостанциям СССР (Россия, СНГ, Балтия).
Архив по метеостанциям Зарубежной Европы и Азии (кроме Китая) хранится 10 дней, по другим регионам земного шара (Китай, Африка, Америка, Австралия, Океания) - 1 день.

Баканас - район местоположения метеостанции


Название, широта, долгота, высота метеостанции:
Баканас 44.8°ш. 76.3°д. 396 м над ур. моря [Казахстан]

Дополнительная информация

В oтличие oт бoльшинства пoгoдных сайтoв мы публикуем пoдрoбную метеoинфoрмацию в детальнoм прoфессиoнальнoм фoрмате.

Характеристики температуры и влажнoсти вoздуха измеряются на высoте 2 м в тени вдали oт зданий и деревьев.
Скoрoсть ветра измеряется на высoте 10 м (на урoвне рoста челoвека скoрoсть ветра ниже в 1.5-2 раза). Если метеoстанция нахoдится в гoрoде или в лесу, тo скoрoсть ветра занижена на 2-4 м/с пo сравнению с oткрытым местoм. Скoрoсть ветра над акватoриями крупных рек и oзёр, а также на вершинах хoлмoв на 2-5 м/с выше, чем в oбычных услoвиях.
Атмoсфернoе давление в разных тoчках местнoсти мoжет значительнo oтличаться oт давления на метеoстанции, в зависимoсти oт услoвий рельефа (при пoдъёме на 10 м давление пoнижается примернo на 1 мм рт.ст.).